Starlink 5472

operational
NORAD ID: 54767 Int'l Des: 2022-175 Owner: SPXS Country: US Constellation: starlink
LEOCIRCULAR

关于 Starlink 5472

正在加载描述...

实时位置

正在加载3D地球...

即将过境

高度历史

Altitude vs Time

uPlot chart will show altitude changes over time

两行轨道根数

1 54767U 22175K 25304.61416259 .00002019 00000-0 14490-3 0 9997
2 54767 53.2186 263.5186 0001687 83.4900 276.6285 15.08836836160431
Epoch: Oct 31, 2025 • Age: 24 hours

当前状态

高度 542.2 km
速度 7.60 km/s
星下点 39.22°N, 32.99°E
发射日期 Dec 17, 2022
运行时间 2.8 years
类型 internet

技术详情

分类 Payload
质量 305.00 kg
干质量 290.00 kg
总质量 305.00 kg
长度 0.20 m
直径 2.80 m
跨度 9.00 m
形状 Box + pan
制造商 SPXS
平台类型 Starlink
阶段状态 In Orbit
所有者/国家 SPXS/US

大型星座

Loading constellations...